Location: Brusselsch Zeekanaal
(50.8667°N, 4.3667°E)
Time: 03:20:00
(UTC+00:00)

NOSS 2-1 (D) - Pass Details

Date: 08 November 2025
Orbit: 374 x 1680 km, 63.3° (Epoch: 15 December)

Event Time Altitude Azimuth Distance (km) Brightness Sun altitude
Exits shadow 06:07:59 - 273° (W) 1,666 5.2 -6.5°
Reaches altitude 10° 06:08:32 10° 279° (W) 1,475 4.9 -6.4°
Maximum altitude 06:10:56 20° 329° (NNW) 973 4.2 -6.0°
Drops below altitude 10° 06:13:13 10° 20° (NNE) 1,394 5.4 -5.7°
Sets 06:15:34 0° 39° (NE) 2,269 6.7 -5.4°
